JA1KWV-11 Weather Reports


Display with metric or nautical units.
time (UTC)temp
F
wind
direction
speed
MPH
gust
MPH
rain 1hr
in
rain 24hr
in
rain mn
in
humidity
%
barometer
mb
20260831061929 84 267 0.0 0.0 0.00 0.00 0.00 90 1013.4
20260831061129 84 267 0.0 0.0 0.00 0.00 0.00 89 1013.2
20260831060329 84 267 0.0 0.0 0.00 0.00 0.00 89 1013.2
20260831055528 84 267 0.0 0.0 0.00 0.00 0.00 88 1013.0
20260831054728 84 267 0.0 0.0 0.00 0.00 0.00 90 1013.4
20260831053928 84 267 0.0 0.0 0.00 0.00 0.00 90 1013.4
20260831053128 84 267 0.0 0.0 0.00 0.00 0.00 90 1013.3
20260831052328 84 267 0.0 0.0 0.00 0.00 0.00 89 1013.3
20260831051527 84 267 0.0 0.0 0.00 0.00 0.00 88 1013.6
20260831050727 84 267 0.0 0.0 0.00 0.00 0.00 88 1013.3
20260831045927 84 267 0.0 0.0 0.00 0.00 0.00 89 1013.2
20260831045127 84 267 0.0 0.0 0.00 0.00 0.00 88 1013.3
20260831044327 84 267 0.0 0.0 0.00 0.00 0.00 87 1013.4
20260831043526 84 267 0.0 0.0 0.00 0.00 0.00 90 1013.5
20260831042726 84 267 0.0 0.0 0.00 0.00 0.00 88 1013.5
20260831041926 84 267 0.0 0.0 0.00 0.00 0.00 89 1013.5
20260831041126 84 267 0.0 0.0 0.00 0.00 0.00 89 1013.4
20260831040325 84 267 0.0 0.0 0.00 0.00 0.00 90 1013.7
20260831035525 84 267 0.0 0.0 0.00 0.00 0.00 90 1013.4
20260831034725 84 267 0.0 0.0 0.00 0.00 0.00 90 1013.3
20260831033925 84 267 0.0 0.0 0.00 0.00 0.00 91 1013.5
20260831033124 84 267 0.0 0.0 0.00 0.00 0.00 91 1013.6
20260831032324 84 267 0.0 0.0 0.00 0.00 0.00 90 1013.7
20260831031524 84 267 0.0 0.0 0.00 0.00 0.00 91 1013.8
20260831030724 84 267 0.0 0.0 0.00 0.00 0.00 91 1014.0
20260831025924 84 267 0.0 0.0 0.00 0.00 0.00 90 1014.3
20260831025123 84 267 0.0 0.0 0.00 0.00 0.00 91 1013.9
20260831024323 84 267 0.0 0.0 0.00 0.00 0.00 92 1014.2
20260831023523 84 267 0.0 0.0 0.00 0.00 0.00 91 1014.1
20260831022723 84 267 0.0 0.0 0.00 0.00 0.00 91 1014.2
20260831021923 84 267 0.0 0.0 0.00 0.00 0.00 91 1014.1
20260831021122 84 267 0.0 0.0 0.00 0.00 0.00 91 1014.1
20260831020322 84 267 0.0 0.0 0.00 0.00 0.00 92 1014.3
20260831015522 84 267 0.0 0.0 0.00 0.00 0.00 90 1014.2
20260831014722 84 267 0.0 0.0 0.00 0.00 0.00 90 1014.1
20260831013921 84 267 0.0 0.0 0.00 0.00 0.00 91 1014.2
20260831013121 84 267 0.0 0.0 0.00 0.00 0.00 91 1014.2
20260831012321 84 267 0.0 0.0 0.00 0.00 0.00 91 1014.2
20260831011521 84 267 0.0 0.0 0.00 0.00 0.00 91 1014.2
20260831010721 84 267 0.0 0.0 0.00 0.00 0.00 91 1014.1
20260831005920 84 267 0.0 0.0 0.00 0.00 0.00 90 1014.2
20260831005120 84 267 0.0 0.0 0.00 0.00 0.00 90 1013.9
20260831004320 84 267 0.0 0.0 0.00 0.00 0.00 91 1013.9
20260831003520 84 267 0.0 0.0 0.00 0.00 0.00 91 1013.9
20260831002719 84 267 0.0 0.0 0.00 0.00 0.00 92 1013.6
20260831001919 84 267 0.0 0.0 0.00 0.00 0.00 90 1013.6
20260831001119 84 267 0.0 0.0 0.00 0.00 0.00 88 1013.7
20260831000319 84 267 0.0 0.0 0.00 0.00 0.00 87 1013.5
20260830235518 84 267 0.0 0.0 0.00 0.00 0.00 88 1013.5
20260830234718 84 267 0.0 0.0 0.00 0.00 0.00 88 1013.6
20260830233918 84 267 0.0 0.0 0.00 0.00 0.00 87 1013.7
20260830233118 84 267 0.0 0.0 0.00 0.00 0.00 89 1013.5
20260830232318 84 267 0.0 0.0 0.00 0.00 0.00 90 1013.4
20260830231517 84 267 0.0 0.0 0.00 0.00 0.00 90 1013.1
20260830230717 84 267 0.0 0.0 0.00 0.00 0.00 90 1013.2
20260830225917 84 267 0.0 0.0 0.00 0.00 0.00 89 1013.2
20260830225117 84 267 0.0 0.0 0.00 0.00 0.00 90 1013.2
20260830224317 84 267 0.0 0.0 0.00 0.00 0.00 89 1012.8
20260830223516 84 267 0.0 0.0 0.00 0.00 0.00 89 1013.0
20260830222716 84 267 0.0 0.0 0.00 0.00 0.00 90 1012.9
20260830221916 84 267 0.0 0.0 0.00 0.00 0.00 90 1012.9
20260830221116 84 267 0.0 0.0 0.00 0.00 0.00 90 1012.8
20260830220315 84 267 0.0 0.0 0.00 0.00 0.00 90 1012.7
20260830215515 84 267 0.0 0.0 0.00 0.00 0.00 89 1012.9
20260830214715 84 267 0.0 0.0 0.00 0.00 0.00 90 1012.7
20260830213915 84 267 0.0 0.0 0.00 0.00 0.00 90 1012.6
20260830213115 84 267 0.0 0.0 0.00 0.00 0.00 90 1012.7
20260830212314 84 267 0.0 0.0 0.00 0.00 0.00 89 1012.4
20260830211514 84 267 0.0 0.0 0.00 0.00 0.00 90 1012.3
20260830210714 84 267 0.0 0.0 0.00 0.00 0.00 90 1012.0
20260830205914 84 267 0.0 0.0 0.00 0.00 0.00 89 1012.0
20260830205114 84 267 0.0 0.0 0.00 0.00 0.00 90 1011.7
20260830204313 84 267 0.0 0.0 0.00 0.00 0.00 90 1011.9
20260830203513 84 267 0.0 0.0 0.00 0.00 0.00 90 1012.0
20260830202713 84 267 0.0 0.0 0.00 0.00 0.00 90 1011.6
20260830201913 84 267 0.0 0.0 0.00 0.00 0.00 90 1011.6
20260830201112 84 267 0.0 0.0 0.00 0.00 0.00 90 1011.4
20260830200312 84 267 0.0 0.0 0.00 0.00 0.00 90 1011.5
20260830195512 84 267 0.0 0.0 0.00 0.00 0.00 89 1011.3
20260830194712 84 267 0.0 0.0 0.00 0.00 0.00 89 1011.1
20260830193912 84 267 0.0 0.0 0.00 0.00 0.00 91 1011.3
20260830193111 84 267 0.0 0.0 0.00 0.00 0.00 89 1011.0
20260830192311 84 267 0.0 0.0 0.00 0.00 0.00 90 1011.0
20260830191511 84 267 0.0 0.0 0.00 0.00 0.00 90 1011.1
20260830190711 84 267 0.0 0.0 0.00 0.00 0.00 91 1010.6
20260830185910 84 267 0.0 0.0 0.00 0.00 0.00 90 1010.9
20260830185110 84 267 0.0 0.0 0.00 0.00 0.00 90 1010.7
20260830184310 84 267 0.0 0.0 0.00 0.00 0.00 90 1010.7
20260830183510 84 267 0.0 0.0 0.00 0.00 0.00 90 1010.7
20260830182710 84 267 0.0 0.0 0.00 0.00 0.00 90 1010.7
20260830181909 84 267 0.0 0.0 0.00 0.00 0.00 90 1010.7
20260830181109 84 267 0.0 0.0 0.00 0.00 0.00 90 1010.5
20260830180309 84 267 0.0 0.0 0.00 0.00 0.00 89 1010.6
20260830175509 84 267 0.0 0.0 0.00 0.00 0.00 90 1010.3
20260830174708 84 267 0.0 0.0 0.00 0.00 0.00 90 1010.6
20260830173908 84 267 0.0 0.0 0.00 0.00 0.00 90 1010.6
20260830173108 84 267 0.0 0.0 0.00 0.00 0.00 90 1010.3
20260830172308 84 267 0.0 0.0 0.00 0.00 0.00 90 1010.3
20260830171508 84 267 0.0 0.0 0.00 0.00 0.00 90 1010.3
20260830170707 84 267 0.0 0.0 0.00 0.00 0.00 90 1010.1
20260830165907 84 267 0.0 0.0 0.00 0.00 0.00 90 1010.2
20260830165107 84 267 0.0 0.0 0.00 0.00 0.00 90 1010.1
20260830164307 84 267 0.0 0.0 0.00 0.00 0.00 90 1010.2
20260830163507 84 267 0.0 0.0 0.00 0.00 0.00 89 1010.2
20260830162706 84 267 0.0 0.0 0.00 0.00 0.00 90 1010.3
20260830161906 84 267 0.0 0.0 0.00 0.00 0.00 90 1010.1
20260830161106 84 267 0.0 0.0 0.00 0.00 0.00 90 1010.0
20260830160306 84 267 0.0 0.0 0.00 0.00 0.00 89 1010.1
20260830155505 84 267 0.0 0.0 0.00 0.00 0.00 90 1010.1
20260830154705 84 267 0.0 0.0 0.00 0.00 0.00 89 1010.2
20260830153905 84 267 0.0 0.0 0.00 0.00 0.00 89 1010.4
20260830153105 84 267 0.0 0.0 0.00 0.00 0.00 88 1010.2
20260830152306 84 267 0.0 0.0 0.00 0.00 0.00 90 1010.4
20260830151504 84 267 0.0 0.0 0.00 0.00 0.00 90 1010.3
20260830150704 84 267 0.0 0.0 0.00 0.00 0.00 89 1010.4
20260830145904 84 267 0.0 0.0 0.00 0.00 0.00 90 1010.1
20260830145104 84 267 0.0 0.0 0.00 0.00 0.00 90 1010.3
20260830144303 84 267 0.0 0.0 0.00 0.00 0.00 89 1010.4
20260830143503 84 267 0.0 0.0 0.00 0.00 0.00 89 1010.1
20260830142703 84 267 0.0 0.0 0.00 0.00 0.00 90 1010.3
20260830141903 84 267 0.0 0.0 0.00 0.00 0.00 90 1010.1
20260830141103 84 267 0.0 0.0 0.00 0.00 0.00 90 1010.5
20260830140302 84 267 0.0 0.0 0.00 0.00 0.00 89 1010.4
20260830135502 84 267 0.0 0.0 0.00 0.00 0.00 89 1010.3
20260830134702 84 267 0.0 0.0 0.00 0.00 0.00 89 1010.2
20260830133902 84 267 0.0 0.0 0.00 0.00 0.00 89 1010.3
20260830133101 84 267 0.0 0.0 0.00 0.00 0.00 90 1010.4
20260830132305 84 267 0.0 0.0 0.00 0.00 0.00 88 1010.3
20260830131501 84 267 0.0 0.0 0.00 0.00 0.00 89 1010.2
20260830130701 84 267 0.0 0.0 0.00 0.00 0.00 88 1010.3
20260830125901 84 267 0.0 0.0 0.00 0.00 0.00 89 1010.3
20260830125100 84 267 0.0 0.0 0.00 0.00 0.00 88 1010.3
20260830124300 84 267 0.0 0.0 0.00 0.00 0.00 88 1010.5
20260830123500 84 267 0.0 0.0 0.00 0.00 0.00 88 1010.4
20260830122700 84 267 0.0 0.0 0.00 0.00 0.00 88 1010.2
20260830121900 84 267 0.0 0.0 0.00 0.00 0.00 88 1010.2
20260830121059 84 267 0.0 0.0 0.00 0.00 0.00 86 1010.2
20260830120259 84 267 0.0 0.0 0.00 0.00 0.00 88 1010.2
20260830115459 84 267 0.0 0.0 0.00 0.00 0.00 88 1010.0
20260830114659 84 267 0.0 0.0 0.00 0.00 0.00 86 1010.2
20260830113858 84 267 0.0 0.0 0.00 0.00 0.00 87 1009.8
20260830113058 84 267 0.0 0.0 0.00 0.00 0.00 87 1010.0
20260830112258 84 267 0.0 0.0 0.00 0.00 0.00 87 1010.0
20260830111458 84 267 0.0 0.0 0.00 0.00 0.00 86 1009.7
20260830110657 84 267 0.0 0.0 0.00 0.00 0.00 86 1009.8
20260830105857 84 267 0.0 0.0 0.00 0.00 0.00 87 1009.5
20260830105057 84 267 0.0 0.0 0.00 0.00 0.00 86 1009.6
20260830104257 84 267 0.0 0.0 0.00 0.00 0.00 86 1009.3
20260830103457 84 267 0.0 0.0 0.00 0.00 0.00 87 1009.3
20260830102656 84 267 0.0 0.0 0.00 0.00 0.00 86 1009.3
20260830101856 84 267 0.0 0.0 0.00 0.00 0.00 87 1009.3
20260830101056 84 267 0.0 0.0 0.00 0.00 0.00 87 1009.2
20260830100256 84 267 0.0 0.0 0.00 0.00 0.00 87 1009.1
20260830095456 84 267 0.0 0.0 0.00 0.00 0.00 86 1009.1
20260830094655 84 267 0.0 0.0 0.00 0.00 0.00 86 1009.0
20260830093855 84 267 0.0 0.0 0.00 0.00 0.00 87 1008.8
20260830093055 84 267 0.0 0.0 0.00 0.00 0.00 87 1008.9
20260830092255 84 267 0.0 0.0 0.00 0.00 0.00 87 1008.6
20260830091455 84 267 0.0 0.0 0.00 0.00 0.00 86 1008.7
20260830090654 84 267 0.0 0.0 0.00 0.00 0.00 86 1008.8
20260830085854 84 267 0.0 0.0 0.00 0.00 0.00 86 1008.6
20260830085054 84 267 0.0 0.0 0.00 0.00 0.00 86 1008.7
20260830084254 84 267 0.0 0.0 0.00 0.00 0.00 86 1008.5
20260830083453 84 267 0.0 0.0 0.00 0.00 0.00 86 1008.5
20260830082653 84 267 0.0 0.0 0.00 0.00 0.00 86 1008.1
20260830081853 84 267 0.0 0.0 0.00 0.00 0.00 86 1008.4
20260830081053 84 267 0.0 0.0 0.00 0.00 0.00 86 1008.4
20260830080252 84 267 0.0 0.0 0.00 0.00 0.00 86 1008.1
20260830075452 84 267 0.0 0.0 0.00 0.00 0.00 86 1008.1
20260830074652 84 267 0.0 0.0 0.00 0.00 0.00 84 1008.3
20260830073852 84 267 0.0 0.0 0.00 0.00 0.00 86 1008.0
20260830073052 84 267 0.0 0.0 0.00 0.00 0.00 85 1008.1
20260830072251 84 267 0.0 0.0 0.00 0.00 0.00 84 1008.0
20260830071451 84 267 0.0 0.0 0.00 0.00 0.00 86 1007.9
20260830070651 84 267 0.0 0.0 0.00 0.00 0.00 85 1008.0
20260830065851 84 267 0.0 0.0 0.00 0.00 0.00 85 1007.9
20260830065050 84 267 0.0 0.0 0.00 0.00 0.00 86 1008.3
20260830064250 84 267 0.0 0.0 0.00 0.00 0.00 85 1007.8
20260830063450 84 267 0.0 0.0 0.00 0.00 0.00 85 1007.8